EW7351 Weather Reports


Display with metric or nautical units.
time (UTC)temp
F
wind
direction
speed
MPH
gust
MPH
rain 1hr
in
rain 24hr
in
rain mn
in
humidity
%
barometer
mb
20260505032140 74 240 5.0 11.0 0.00 0.00 0.00 66 1005.1
20260505031859 74 146 4.0 11.0 0.00 0.00 0.00 66 1005.2
20260505031109 74 174 4.0 10.0 0.00 0.00 0.00 66 1005.2
20260505030609 74 243 3.0 10.0 0.00 0.00 0.00 66 1005.1
20260505030042 74 157 4.0 9.0 0.00 0.00 0.00 65 1005.1
20260505025515 74 193 4.0 8.0 0.00 0.00 0.00 65 1005.2
20260505025011 74 238 4.0 9.0 0.00 0.00 0.00 65 1005.2
20260505024509 74 200 3.0 9.0 0.00 0.00 0.00 65 1005.2
20260505023940 74 252 4.0 8.0 0.00 0.00 0.00 65 1005.1
20260505023437 74 220 4.0 8.0 0.00 0.00 0.00 64 1005.0
20260505022910 74 250 4.0 10.0 0.00 0.00 0.00 64 1004.9
20260505022342 74 133 3.0 10.0 0.00 0.00 0.00 64 1005.0
20260505021841 75 175 3.0 11.0 0.00 0.00 0.00 64 1005.0
20260505021533 75 202 4.0 11.0 0.00 0.00 0.00 63 1004.9
20260505021035 75 223 4.0 10.0 0.00 0.00 0.00 63 1004.9
20260505020243 75 232 4.0 9.0 0.00 0.00 0.00 63 1004.9
20260505015743 75 142 4.0 12.0 0.00 0.00 0.00 62 1004.9
20260505015217 75 234 5.0 12.0 0.00 0.00 0.00 62 1004.9
20260505014652 76 232 5.0 14.0 0.00 0.00 0.00 62 1005.0
20260505014146 76 171 6.0 14.0 0.00 0.00 0.00 61 1005.0
20260505013643 76 216 6.0 13.0 0.00 0.00 0.00 61 1004.9
20260505013137 76 219 6.0 13.0 0.00 0.00 0.00 61 1004.9
20260505012611 76 234 6.0 17.0 0.00 0.00 0.00 61 1004.8
20260505012111 76 221 7.0 17.0 0.00 0.00 0.00 61 1004.8
20260505011547 76 270 6.0 15.0 0.00 0.00 0.00 60 1004.8
20260505011021 76 160 6.0 15.0 0.00 0.00 0.00 60 1004.8
20260505010522 76 154 7.0 13.0 0.00 0.00 0.00 60 1004.8
20260505005957 77 233 8.0 14.0 0.00 0.00 0.00 59 1004.7
20260505005435 77 257 7.0 14.0 0.00 0.00 0.00 59 1004.8
20260505004934 77 351 6.0 17.0 0.00 0.00 0.00 59 1004.9
20260505004654 77 200 7.0 17.0 0.00 0.00 0.00 58 1004.9
20260505003934 77 175 8.0 19.0 0.00 0.00 0.00 58 1005.0
20260505003418 77 131 9.0 19.0 0.00 0.00 0.00 57 1004.9
20260505002918 78 139 10.0 20.0 0.00 0.00 0.00 57 1004.8
20260505002356 78 179 9.0 20.0 0.00 0.00 0.00 56 1004.8
20260505001842 78 225 8.0 18.0 0.00 0.00 0.00 56 1005.0
20260505001829 78 164 8.0 18.0 0.00 0.00 0.00 56 1005.0
20260505000821 78 153 9.0 17.0 0.00 0.00 0.00 56 1005.1
20260505000310 78 207 9.0 17.0 0.00 0.00 0.00 56 1005.0
20260504235809 78 234 8.0 17.0 0.00 0.00 0.00 56 1005.2
20260504235306 78 155 8.0 17.0 0.00 0.00 0.00 55 1005.1
20260504234805 78 201 9.0 18.0 0.00 0.00 0.00 55 1005.2
20260504234304 78 231 10.0 19.0 0.00 0.00 0.00 55 1005.2
20260504233738 78 101 10.0 23.0 0.00 0.00 0.00 55 1005.2
20260504233120 79 237 9.0 19.0 0.00 0.00 0.00 55 1005.2
20260504232600 79 257 10.0 22.0 0.00 0.00 0.00 55 1005.1
20260504232100 79 219 10.0 22.0 0.00 0.00 0.00 54 1005.2
20260504231602 79 234 9.0 20.0 0.00 0.00 0.00 54 1005.5
20260504231041 80 229 9.0 19.0 0.00 0.00 0.00 53 1005.5
20260504230515 80 178 10.0 21.0 0.00 0.00 0.00 52 1005.5
20260504225950 80 132 9.0 21.0 0.00 0.00 0.00 51 1005.6
20260504225450 81 178 9.0 17.0 0.00 0.00 0.00 52 1005.6
20260504224950 81 222 9.0 19.0 0.00 0.00 0.00 52 1005.7
20260504224446 81 224 9.0 19.0 0.00 0.00 0.00 53 1005.8
20260504223949 80 155 10.0 18.0 0.00 0.00 0.00 52 1005.6
20260504223446 81 274 9.0 18.0 0.00 0.00 0.00 52 1005.6
20260504222949 80 175 9.0 16.0 0.00 0.00 0.00 52 1005.5
20260504222421 81 195 9.0 18.0 0.00 0.00 0.00 52 1005.7
20260504222119 81 134 10.0 20.0 0.00 0.00 0.00 52 1005.7
20260504221402 81 210 11.0 24.0 0.00 0.00 0.00 51 1005.8
20260504220857 81 218 11.0 24.0 0.00 0.00 0.00 51 1005.8
20260504220357 81 158 10.0 22.0 0.00 0.00 0.00 51 1006.0
20260504215855 81 165 10.0 22.0 0.00 0.00 0.00 51 1006.0
20260504215331 81 231 10.0 20.0 0.00 0.00 0.00 51 1006.1
20260504214803 81 173 10.0 20.0 0.00 0.00 0.00 52 1006.2
20260504214242 80 249 9.0 17.0 0.00 0.00 0.00 52 1006.3
20260504213735 80 114 10.0 17.0 0.00 0.00 0.00 52 1006.3
20260504213459 80 205 11.0 21.0 0.00 0.00 0.00 51 1006.4
20260504212707 80 225 10.0 21.0 0.00 0.00 0.00 50 1006.5
20260504212139 80 159 10.0 19.0 0.00 0.00 0.00 51 1006.7
20260504211614 80 167 10.0 18.0 0.00 0.00 0.00 51 1006.7
20260504211109 80 139 9.0 19.0 0.00 0.00 0.00 51 1006.8
20260504210602 80 178 10.0 19.0 0.00 0.00 0.00 49 1006.8
20260504210101 80 177 9.0 19.0 0.00 0.00 0.00 49 1007.0
20260504205532 80 234 9.0 23.0 0.00 0.00 0.00 51 1007.1
20260504205031 80 69 10.0 23.0 0.00 0.00 0.00 49 1007.1
20260504204524 81 219 9.0 18.0 0.00 0.00 0.00 50 1007.3
20260504204248 81 234 10.0 20.0 0.00 0.00 0.00 50 1007.3
20260504203518 81 213 10.0 20.0 0.00 0.00 0.00 48 1007.4
20260504203014 81 155 9.0 16.0 0.00 0.00 0.00 49 1007.5
20260504202512 81 170 9.0 19.0 0.00 0.00 0.00 48 1007.6
20260504202011 80 223 10.0 19.0 0.00 0.00 0.00 47 1007.8
20260504201506 80 233 10.0 19.0 0.00 0.00 0.00 48 1007.8
20260504201002 80 146 9.0 19.0 0.00 0.00 0.00 47 1008.0
20260504200501 80 203 10.0 18.0 0.00 0.00 0.00 47 1008.1
20260504200214 80 241 10.0 20.0 0.00 0.00 0.00 47 1008.2
20260504195428 80 166 10.0 20.0 0.00 0.00 0.00 48 1008.3
20260504194924 80 216 10.0 18.0 0.00 0.00 0.00 48 1008.4
20260504194637 80 243 9.0 17.0 0.00 0.00 0.00 47 1008.4
20260504193857 80 147 8.0 17.0 0.00 0.00 0.00 46 1008.4
20260504193329 80 203 8.0 16.0 0.00 0.00 0.00 46 1008.5
20260504192827 80 242 8.0 16.0 0.00 0.00 0.00 47 1008.6
20260504192519 80 236 9.0 19.0 0.00 0.00 0.00 45 1008.7
20260504191755 80 259 9.0 19.0 0.00 0.00 0.00 46 1008.9
20260504191452 80 155 9.0 17.0 0.00 0.00 0.00 46 1009.0
20260504190705 79 133 8.0 17.0 0.00 0.00 0.00 46 1009.0
20260504190138 79 128 9.0 21.0 0.00 0.00 0.00 45 1009.0
20260504185613 79 214 10.0 21.0 0.00 0.00 0.00 47 1009.1
20260504185044 79 219 9.0 21.0 0.00 0.00 0.00 44 1009.1
20260504184541 80 263 8.0 18.0 0.00 0.00 0.00 44 1009.2
20260504184017 79 211 8.0 18.0 0.00 0.00 0.00 45 1009.3
20260504183512 79 229 8.0 19.0 0.00 0.00 0.00 44 1009.4
20260504183011 79 231 8.0 19.0 0.00 0.00 0.00 45 1009.5
20260504182706 78 131 9.0 16.0 0.00 0.00 0.00 43 1009.6
20260504181920 78 237 9.0 20.0 0.00 0.00 0.00 43 1009.8
20260504181350 78 165 9.0 20.0 0.00 0.00 0.00 43 1009.8
20260504180848 78 217 10.0 19.0 0.00 0.00 0.00 43 1009.8
20260504180320 78 222 11.0 22.0 0.00 0.00 0.00 42 1009.7
20260504175817 78 174 12.0 22.0 0.00 0.00 0.00 43 1009.7
20260504175314 78 217 12.0 21.0 0.00 0.00 0.00 43 1010.1
20260504174813 77 123 12.0 21.0 0.00 0.00 0.00 42 1010.2
20260504174247 77 150 11.0 20.0 0.00 0.00 0.00 42 1010.1
20260504173721 77 224 11.0 20.0 0.00 0.00 0.00 45 1010.3
20260504173155 77 226 10.0 25.0 0.00 0.00 0.00 44 1010.2
20260504172627 77 190 9.0 25.0 0.00 0.00 0.00 43 1010.2
20260504172123 77 252 9.0 19.0 0.00 0.00 0.00 44 1010.4
20260504171559 76 250 9.0 19.0 0.00 0.00 0.00 46 1010.6
20260504171045 76 221 8.0 17.0 0.00 0.00 0.00 47 1010.8
20260504170549 76 155 9.0 18.0 0.00 0.00 0.00 47 1010.7
20260504160204 73 251 10.0 25.0 0.00 0.00 0.00 52 1011.7
20260504160150 73 168 11.0 25.0 0.00 0.00 0.00 51 1011.9
20260504151144 70 147 9.0 20.0 0.00 0.00 0.00 58 1012.1
20260504150348 70 217 9.0 18.0 0.00 0.00 0.00 59 1011.9
20260504140620 67 219 9.0 19.0 0.00 0.00 0.00 63 1012.4
20260504140602 67 210 8.0 16.0 0.00 0.00 0.00 63 1012.4
20260504130450 64 127 5.0 14.0 0.00 0.00 0.00 68 1012.5
20260504130145 64 179 5.0 11.0 0.00 0.00 0.00 68 1012.5
20260504090124 63 230 5.0 12.0 0.00 0.00 0.00 62 1012.5
20260504081903 65 156 6.0 12.0 0.00 0.00 0.00 58 1012.6
20260504081601 65 271 6.0 15.0 0.00 0.00 0.00 58 1012.6
20260504080811 65 230 6.0 15.0 0.00 0.00 0.00 58 1012.6
20260504080309 65 250 6.0 13.0 0.00 0.00 0.00 57 1012.7
20260504050452 68 151 3.0 7.0 0.00 0.00 0.00 51 1014.5
20260504045949 68 155 3.0 7.0 0.00 0.00 0.00 51 1014.5
20260504045449 68 227 3.0 9.0 0.00 0.00 0.00 51 1014.6
20260504044924 68 132 3.0 9.0 0.00 0.00 0.00 50 1014.6
20260504044357 68 205 3.0 8.0 0.00 0.00 0.00 50 1014.6
20260504043853 68 271 3.0 8.0 0.00 0.00 0.00 50 1014.7
20260504043327 69 206 4.0 8.0 0.00 0.00 0.00 49 1014.6
20260504042825 69 250 4.0 10.0 0.00 0.00 0.00 49 1014.7
20260504042323 69 144 3.0 10.0 0.00 0.00 0.00 49 1014.7
20260504041822 69 217 3.0 7.0 0.00 0.00 0.00 49 1014.6
20260504041322 69 131 2.0 8.0 0.00 0.00 0.00 49 1014.7
20260504040823 69 211 3.0 8.0 0.00 0.00 0.00 49 1014.7
20260504040525 69 169 3.0 9.0 0.00 0.00 0.00 48 1014.7
20260504035733 69 210 3.0 9.0 0.00 0.00 0.00 48 1014.7
20260504035229 69 122 2.0 8.0 0.00 0.00 0.00 48 1014.7
20260504034730 69 181 3.0 8.0 0.00 0.00 0.00 48 1014.7
20260504034212 69 192 2.0 6.0 0.00 0.00 0.00 47 1014.7
20260504033716 69 133 1.0 5.0 0.00 0.00 0.00 47 1014.7
20260504033200 69 190 2.0 6.0 0.00 0.00 0.00 47 1014.7
20260504032701 69 158 2.0 6.0 0.00 0.00 0.00 46 1014.6